sat.trackr.live / text

‹ back to catalog

STARLINK-6330

NORAD 57239 · 2023-094X

PAYLOAD ACTIVE UNKNOWN

§ Identity

Operator
Country
US
Launch date
2023-07-07
Launch site
AFWTR
Launch vehicle
Mass (kg)
RCS (m²)

Purposes: comms

External: N2YO · Heavens-Above · Gunter

§ Orbital elements

Epoch: 2026-09-20T13:46:32.031840Z

Period
94.27 min
Inclination
43.0041°
Eccentricity
0.0001505
Mean motion
15.27574440 rev/d
Perigee alt
482.0 km
Apogee alt
484.1 km
Semi-major
6,861.2 km
B*
3.3098e-5
RAAN
9.8418°
Arg perigee
264.7074°
Mean anomaly
95.3606°
Rev number
17,692

§ Raw data

STARLINK-63301 57239U 23094X   26263.57398185  .00000648  00000+0  33098-4 0  99932 57239  43.0041   9.8418 0001505 264.7074  95.3606 15.27574440176924

JSON: /api/v1/satellites/57239 · /tle

For live sub-satellite position, see the globe view (requires WebGL).

§ Visibility from observer

Set your observer location to see the next 7 days of passes ≥ 10°. The values pass through the URL so the page stays shareable.

No JS? Fill the form by hand. The geolocation button needs JavaScript.